Theta_e
321 313 307 310 303 302 296 301 307 304 305 312 315 314 311 314 310 303 327 328 332 337 342 341 343 343 343 344 343 342 343 341 340 339 336 333 332 332 330 329 328 328 328 327 326 325 324 323 322
315 311 308 302 297 292 291 301 301 304 310 315 312 312 311 310 320 321 324 327 331 338 340 340 340 342 343 343 342 341 341 339 337 335 333 331 330 329 328 327 326 326 326 325 325 324 323 321 321
305 308 302 296 292 291 293 297 299 302 310 307 309 313 310 313 320 322 325 326 329 332 339 338 339 341 341 340 339 338 337 336 334 331 330 329 328 327 326 325 324 324 323 323 322 322 321 320 319
302 302 297 291 287 289 291 293 296 300 301 308 310 307 313 322 321 322 324 324 325 325 328 337 340 339 338 337 337 335 334 332 330 328 328 326 325 324 323 322 322 321 321 321 320 319 318 318 317
300 296 289 288 288 289 291 293 296 298 299 304 308 305 311 320 322 322 322 323 321 322 324 326 333 335 335 334 333 332 330 328 327 327 325 324 323 322 321 320 320 319 319 318 317 316 315 314 314
296 293 287 285 286 288 290 291 294 296 297 298 307 307 310 321 320 320 321 320 321 320 320 321 322 326 328 329 328 327 326 325 324 323 323 321 319 317 317 317 317 316 316 316 315 314 313 313 313
293 290 285 285 285 287 289 292 292 293 296 298 302 303 311 318 319 319 320 320 320 320 319 318 318 317 318 319 320 320 320 319 319 317 315 313 313 312 311 309 311 311 312 312 312 312 312 313 313
294 290 283 282 285 285 289 291 291 294 294 302 303 303 304 316 319 319 318 318 317 318 318 317 315 313 311 310 315 314 313 311 310 310 309 310 310 310 308 307 308 310 311 311 312 312 312 311 309
295 287 283 283 285 285 289 289 290 293 300 304 310 311 316 319 319 318 316 316 315 315 314 313 312 310 311 308 308 308 308 308 308 306 306 303 300 300 301 304 308 310 310 310 310 310 310 308 304
291 285 285 286 285 285 288 288 287 290 294 299 306 314 316 314 317 316 315 314 314 313 313 312 311 309 306 308 303 301 301 299 299 299 298 299 299 299 304 302 306 306 306 306 307 307 306 300 294
290 286 289 288 290 289 289 288 288 288 288 290 297 308 310 307 310 313 314 314 315 315 314 313 310 309 305 303 301 299 299 299 300 300 300 300 300 298 298 296 295 295 299 295 295 294 293 292 292
288 291 291 291 291 289 288 289 287 288 288 296 304 308 306 307 307 308 302 302 302 302 303 308 310 307 304 302 300 299 298 299 299 299 300 298 296 296 295 295 294 293 294 293 293 292 292 292 292
288 289 291 291 291 290 290 287 286 287 292 302 307 307 306 306 303 300 301 301 301 300 301 302 302 301 303 302 300 299 298 297 297 297 298 297 295 294 294 294 293 293 293 293 292 292 292 292 292
290 290 290 291 290 290 290 288 287 287 287 301 304 303 299 298 298 298 298 298 298 299 300 301 301 300 300 300 300 300 299 298 298 297 297 297 296 295 294 294 294 293 293 293 293 292 292 291 291
290 288 289 289 289 289 288 286 283 285 287 299 300 297 296 296 296 294 295 295 295 297 298 298 299 299 299 299 301 301 300 300 298 298 298 297 297 296 295 294 294 294 294 294 293 293 292 292 292
287 286 282 288 287 289 288 281 284 286 290 295 293 294 294 294 293 293 294 294 294 294 295 296 298 297 298 298 299 300 300 299 298 298 297 298 298 297 295 294 294 294 294 293 292 291 291 291 290
284 278 282 284 286 285 285 279 284 285 292 290 291 291 291 291 291 291 292 292 292 292 293 293 295 294 296 297 297 298 298 298 298 297 297 298 298 298 296 295 295 294 293 293 292 292 290 289 290
280 280 282 281 284 283 280 278 282 283 285 284 286 287 288 288 289 290 290 290 290 289 290 290 291 292 293 294 294 295 294 295 297 297 298 299 299 298 297 296 295 294 293 292 291 290 290 289 290
283 282 279 281 283 280 277 277 280 282 281 281 282 284 285 285 287 287 287 287 286 286 287 287 287 289 289 289 290 290 290 292 293 295 296 297 298 298 297 297 295 294 293 293 292 290 290 289 289
280 279 276 279 282 280 277 276 278 280 279 279 280 280 282 282 283 284 284 284 284 284 284 285 286 286 286 287 288 289 288 290 290 292 292 294 294 295 296 295 296 295 294 293 292 291 289 289 288
279 277 275 277 280 279 276 277 277 279 280 280 280 279 279 280 280 281 282 281 282 282 282 284 284 285 285 285 286 285 285 285 285 286 287 289 290 292 293 294 295 295 295 294 293 291 289 290 288
279 280 280 279 274 270 276 270 275 277 277 278 278 276 276 277 280 281 281 281 281 281 282 283 283 284 285 284 283 282 281 280 283 284 285 285 288 289 290 292 293 293 294 295 295 295 292 291 290
279 281 280 278 273 272 272 268 273 276 275 276 277 277 276 276 277 279 280 281 281 281 280 281 282 283 284 283 283 282 281 282 283 283 283 284 285 286 287 289 291 292 293 293 294 294 294 293 292
282 279 278 276 271 266 265 268 274 274 275 276 277 277 277 276 277 278 280 281 280 280 280 281 281 281 282 282 282 281 280 281 281 281 281 282 283 284 285 287 288 290 290 291 292 293 293 293 293
279 275 268 270 267 271 260 267 276 276 275 277 277 276 276 276 276 277 277 278 278 279 279 281 281 280 281 281 281 281 280 280 280 280 280 280 281 281 283 284 285 286 288 290 290 290 292 293 292
277 273 269 263 266 269 261 268 275 275 276 277 278 278 278 277 277 276 277 277 278 278 279 279 280 279 280 279 280 280 280 280 280 280 280 280 280 281 282 282 283 284 285 287 288 288 290 291 291
276 270 275 263 255 262 269 274 277 276 275 275 276 276 276 276 277 277 277 277 277 278 278 279 279 279 279 279 279 279 280 279 279 279 280 280 280 281 281 281 281 282 283 285 286 286 286 287 288
277 278 270 267 263 262 266 263 273 271 272 273 275 275 276 277 277 277 277 277 277 278 278 278 279 278 279 278 279 279 279 279 279 279 278 279 279 280 280 280 280 280 281 284 285 285 285 285 285
272 270 271 271 271 266 262 269 272 271 271 272 272 275 270 271 275 277 278 278 277 277 277 277 278 278 278 278 279 278 279 279 279 278 278 278 279 279 279 279 279 279 281 284 285 284 284 283 284
278 276 275 270 267 267 267 270 272 267 263 265 270 273 272 270 273 273 276 276 276 275 275 276 277 277 277 277 278 278 278 278 277 277 277 277 277 278 278 278 278 279 281 283 283 283 283 283 282
Wind_Speed
10 8 0 4 5 5 2 3 4 3 4 3 6 3 7 4 3 1 1 10 12 9 5 5 5 7 8 11 10 11 13 13 12 9 7 6 6 7 7 8 8 9 9 9 9 10 10 10 10
6 6 4 2 5 4 3 4 6 4 4 7 6 2 5 4 4 2 5 13 12 8 7 7 11 14 15 15 15 14 12 14 9 7 7 6 6 6 7 8 9 9 9 9 10 10 10 11 11
5 2 5 5 3 4 2 3 3 2 5 2 4 6 2 3 2 3 6 11 10 10 7 7 12 15 15 14 13 12 10 10 8 5 5 5 6 7 7 8 9 9 9 9 10 10 11 11 11
4 5 6 7 5 4 3 4 3 3 3 6 4 6 3 4 3 5 8 9 7 11 12 11 15 16 14 12 12 11 10 8 6 4 5 5 5 5 6 7 7 8 9 10 10 10 10 11 11
5 4 6 5 3 2 3 5 5 3 3 4 1 3 4 3 5 7 8 8 10 10 10 12 17 15 14 13 13 12 11 6 5 6 6 6 7 7 7 8 8 9 9 9 10 11 10 10 10
5 4 6 4 2 2 3 5 3 3 3 3 6 5 3 5 5 6 7 8 8 7 9 8 13 15 14 13 11 9 9 7 7 7 7 7 7 8 9 9 9 8 9 10 10 11 11 11 10
7 5 4 4 3 3 3 9 3 2 4 6 2 5 3 3 4 4 5 5 6 7 7 7 7 7 11 11 11 10 8 8 7 6 6 7 6 6 7 8 9 9 10 10 10 10 10 11 11
5 6 4 2 3 0 4 4 3 5 4 2 4 4 3 3 4 4 5 5 5 5 4 4 4 5 5 6 10 9 8 8 6 6 7 8 8 8 8 8 8 10 10 11 11 12 11 11 11
2 7 3 2 3 2 5 2 5 4 6 5 5 3 4 7 4 2 2 3 4 4 4 4 4 4 4 3 5 7 9 9 10 8 9 7 4 5 6 8 10 11 11 12 12 12 11 10 9
7 5 2 1 1 2 4 4 5 4 5 4 6 6 5 2 2 1 4 4 4 4 3 4 5 5 5 3 5 5 5 4 5 5 6 4 5 5 6 7 10 10 10 11 11 11 11 8 4
4 4 3 2 3 3 5 5 5 2 5 3 2 6 3 1 3 5 4 5 5 5 5 6 6 7 6 5 3 2 2 3 3 5 5 4 4 4 4 3 4 4 6 4 5 6 4 6 5
8 5 3 3 5 3 4 5 5 6 1 3 6 5 3 6 8 9 13 13 12 13 14 12 8 7 6 4 4 4 3 3 4 4 5 4 3 4 4 3 4 4 3 5 4 3 5 6 6
7 2 5 4 7 6 1 4 2 6 6 6 8 8 7 8 11 10 9 12 11 14 13 13 10 10 9 6 4 4 4 4 4 4 4 3 4 4 4 4 4 4 4 4 4 4 4 5 6
3 6 5 7 8 5 5 6 4 8 10 6 9 11 13 15 12 12 14 11 11 10 10 9 10 9 8 7 7 5 4 5 4 4 5 5 4 4 4 4 4 4 3 4 4 4 5 5 5
3 5 5 10 9 4 1 7 6 9 6 9 12 12 13 14 13 10 7 8 7 6 7 10 10 10 10 9 7 5 4 4 4 5 6 6 5 6 5 4 5 5 4 6 4 5 4 5 4
6 5 5 5 12 4 3 2 7 12 9 9 10 11 12 11 8 7 7 7 7 7 10 10 10 12 12 11 8 7 5 4 4 5 5 7 7 6 6 5 5 4 4 4 4 4 4 5 4
9 2 3 2 4 4 6 1 6 9 8 8 9 9 8 7 10 9 10 10 11 11 11 12 12 14 13 12 10 9 10 8 6 5 5 8 8 7 5 5 6 5 4 4 4 3 3 4 6
2 3 3 2 7 6 4 2 5 9 8 8 8 7 8 9 9 9 11 11 10 11 11 11 10 13 11 8 8 7 7 8 8 7 8 12 9 10 7 6 7 5 4 5 4 5 3 4 6
2 1 4 3 5 5 3 2 4 7 7 8 7 6 7 8 5 7 9 9 10 12 12 13 13 13 10 9 9 8 9 7 8 6 10 10 9 11 11 9 8 6 5 7 6 3 5 4 3
8 3 5 6 5 5 2 2 1 3 2 2 4 6 6 5 7 8 7 9 9 9 10 11 11 11 10 8 7 4 7 4 7 7 10 10 12 13 11 11 10 9 7 7 8 5 3 3 3
2 3 2 6 8 1 4 6 5 2 4 4 6 4 4 5 5 6 7 7 7 9 9 9 10 9 8 10 8 8 5 5 6 11 10 13 15 14 14 13 10 11 8 9 9 6 7 8 4
1 2 2 4 4 2 4 7 6 5 5 3 3 2 2 3 4 4 6 7 7 7 6 7 9 9 10 10 10 11 8 9 9 10 11 13 14 14 15 15 14 11 9 12 10 9 9 7 9
2 1 3 2 3 4 4 4 6 6 7 8 7 4 1 2 3 5 6 6 5 6 7 7 8 9 10 10 9 8 10 8 9 9 14 14 13 16 16 15 15 14 10 12 13 13 11 9 10
3 1 4 3 3 4 5 5 6 7 7 5 4 4 2 1 3 4 5 5 6 6 6 7 9 10 10 10 11 11 12 13 12 12 11 10 11 11 14 16 16 16 14 13 12 13 14 13 11
6 7 6 9 7 6 1 1 12 2 1 6 9 8 6 3 2 4 6 7 7 8 8 7 8 11 10 10 10 11 12 12 13 13 11 15 11 11 12 15 15 15 18 17 14 14 14 13 11
5 5 7 5 4 7 2 8 7 0 2 4 5 7 6 5 3 3 5 6 6 7 7 7 9 11 10 10 11 10 11 8 10 11 12 11 12 12 15 15 15 17 19 18 16 13 11 11 10
1 4 2 7 2 4 4 9 3 2 2 3 6 6 8 7 6 6 6 6 6 7 8 8 9 10 11 11 10 10 10 12 12 14 13 11 14 13 16 17 17 17 19 18 17 11 12 11 11
3 3 4 4 3 7 7 7 9 6 10 8 8 9 8 6 7 7 6 6 5 7 7 8 9 11 12 11 10 10 12 12 12 12 14 14 15 16 17 18 18 17 18 17 16 12 11 11 8
2 2 4 3 4 5 6 9 7 7 8 13 10 6 7 7 8 7 7 6 7 7 7 9 10 11 11 11 12 12 12 12 13 12 13 14 16 16 17 18 19 18 18 16 13 12 13 12 10
4 6 7 6 7 4 2 13 2 6 5 5 7 6 5 6 7 7 7 7 7 8 7 10 11 12 12 11 12 13 12 13 12 12 14 15 16 17 17 19 19 18 17 16 15 14 13 11 11
Wind_Direction
326 310 234 24 63 72 35 19 216 60 60 20 37 59 111 47 360 100 248 9 355 347 9 22 51 71 77 79 80 79 84 77 61 72 79 53 42 41 34 29 29 30 25 26 27 28 27 22 21
327 329 40 65 80 62 329 307 56 40 140 120 87 79 44 63 15 33 350 346 348 358 26 47 68 77 82 88 88 85 77 77 59 61 61 53 45 33 33 28 26 27 23 17 18 20 21 17 15
311 13 70 83 76 89 144 4 26 29 138 203 101 58 55 30 45 7 355 350 344 25 24 61 76 78 77 81 82 85 84 88 85 57 59 52 44 34 28 25 25 18 17 12 13 13 12 10 10
23 11 34 73 71 8 41 335 316 196 99 56 118 65 66 34 5 353 357 3 25 25 17 52 69 71 69 75 83 83 79 73 80 79 74 61 57 44 34 26 23 18 14 9 7 7 7 7 4
33 52 61 76 75 69 4 324 314 48 66 21 47 114 58 53 29 19 18 19 28 26 27 31 51 61 65 58 53 53 60 49 46 40 40 42 27 22 24 20 18 14 6 6 4 0 1 3 5
42 86 65 117 104 0 336 343 338 43 10 25 68 92 78 47 28 17 33 33 38 32 35 25 35 45 50 55 56 56 54 43 42 29 21 31 30 17 16 9 4 4 1 359 1 357 353 354 352
109 80 118 113 134 23 323 326 37 22 17 25 61 76 89 56 47 51 49 48 40 41 39 37 31 31 34 38 43 39 39 34 29 35 27 20 18 9 9 360 354 354 352 351 351 349 348 344 347
95 87 88 19 164 151 316 354 339 42 46 27 352 91 135 121 85 66 53 44 40 41 31 33 27 32 29 19 27 26 22 19 13 9 5 351 342 340 351 346 341 345 346 344 337 339 340 348 347
85 64 86 146 144 207 340 42 8 325 74 47 21 58 82 109 121 78 40 30 21 25 17 14 24 26 19 8 18 4 356 350 351 352 342 350 342 338 328 323 334 332 337 334 337 336 336 340 342
63 79 138 239 321 346 333 55 325 38 23 61 70 64 60 34 192 14 36 12 1 354 355 11 0 359 6 345 11 353 340 340 339 335 332 331 328 327 334 331 328 331 330 331 330 332 335 338 326
26 108 165 22 347 346 344 31 326 73 33 25 137 149 132 39 32 51 47 17 354 347 353 355 353 355 350 347 344 332 325 326 322 322 319 322 332 327 321 318 324 325 326 326 329 329 329 325 319
90 44 70 23 11 26 14 303 50 52 50 34 115 130 102 79 45 32 43 37 35 36 23 15 7 354 334 331 333 322 326 324 319 317 318 331 326 321 315 310 313 315 316 313 315 313 311 308 309
68 92 57 40 33 38 32 55 48 44 14 62 81 64 71 59 55 48 48 38 29 26 13 11 7 3 352 337 318 314 306 307 301 304 297 296 290 288 289 287 296 297 299 292 305 309 306 310 311
80 78 54 22 3 44 64 19 67 349 331 70 71 62 61 57 46 46 39 32 30 25 16 4 7 359 344 344 332 305 304 306 311 305 291 296 279 279 286 290 287 284 280 286 285 291 292 290 295
112 72 41 14 339 36 292 27 5 306 290 101 82 82 72 64 53 51 41 37 15 11 358 8 6 0 2 353 344 337 326 323 314 308 305 299 286 277 276 282 285 277 285 288 290 291 292 293 294
44 50 40 347 2 344 52 231 322 341 92 89 99 89 78 65 59 43 36 36 17 13 11 4 5 3 0 354 350 353 352 347 330 323 319 312 306 293 289 279 275 284 288 281 283 287 292 283 281
12 98 17 303 50 290 29 340 331 348 102 110 105 94 81 61 41 26 21 18 17 10 8 9 7 7 358 355 353 352 352 353 342 331 329 320 310 296 278 276 275 283 288 284 278 281 243 289 293
341 20 328 281 343 14 26 88 349 359 34 59 57 58 60 56 35 27 25 22 18 15 16 16 15 11 3 1 354 352 354 344 341 341 343 337 332 326 308 287 274 269 269 273 259 252 253 241 272
301 51 329 352 22 355 18 64 358 11 37 50 45 51 55 48 13 28 21 16 19 20 17 15 13 6 11 4 359 356 348 329 338 332 334 332 331 332 326 310 290 274 256 261 265 262 265 280 243
26 15 347 292 9 27 331 257 1 45 44 67 91 64 54 38 26 15 15 16 17 13 8 11 10 8 13 5 357 343 324 319 310 330 330 329 332 326 321 318 305 289 274 264 259 233 257 252 215
57 110 293 226 334 38 331 283 195 125 123 68 41 42 44 45 27 3 7 3 0 11 358 2 359 1 9 358 351 347 325 329 335 339 334 334 329 324 318 314 306 297 284 275 266 241 222 260 240
301 176 269 286 31 257 17 278 231 185 176 172 158 107 82 39 14 3 360 4 357 357 346 352 357 357 359 356 356 358 348 335 327 325 322 325 324 323 318 311 307 300 291 284 273 263 244 229 251
261 291 241 107 97 35 353 69 265 125 229 211 208 183 110 35 8 5 356 348 336 347 350 336 352 352 351 353 352 344 334 321 315 320 319 321 323 320 317 313 307 302 296 291 284 276 260 244 246
294 118 52 61 101 29 239 121 259 195 212 175 196 193 201 331 351 350 330 329 337 341 348 340 351 348 347 347 341 339 330 323 322 318 315 315 314 313 312 314 313 306 298 291 288 280 267 261 249
23 42 348 356 6 229 34 351 251 243 216 200 179 190 203 225 318 343 354 348 340 339 336 337 343 337 332 329 326 325 319 317 317 317 315 317 314 313 311 313 310 308 302 294 288 285 272 264 251
30 117 143 244 270 281 25 243 263 110 66 87 150 193 212 236 258 297 319 327 326 322 324 324 325 325 324 320 315 312 312 313 311 309 310 307 308 307 308 307 307 304 301 295 290 285 276 265 251
258 50 139 103 114 38 256 287 258 126 273 206 213 217 234 246 259 276 301 303 308 318 312 312 311 312 311 307 305 306 305 307 304 304 303 303 304 305 306 306 304 303 301 296 289 280 278 264 250
114 163 37 6 337 300 280 274 248 250 237 230 229 227 245 265 271 272 279 299 312 304 300 303 299 301 300 300 296 301 302 298 299 300 300 301 302 304 306 306 306 303 301 295 289 280 280 263 247
23 5 45 128 148 199 287 258 211 212 215 215 224 235 248 272 278 280 283 292 297 298 300 296 298 300 305 308 303 302 301 303 303 301 302 304 304 305 305 306 306 304 302 302 293 285 282 270 261
205 203 172 133 250 232 190 270 172 229 243 201 223 237 259 254 279 286 285 306 310 303 295 314 312 306 303 302 302 301 304 307 305 306 309 311 308 306 308 311 308 305 304 306 302 292 283 272 263